TimeCDT,TemperatureF,Dew PointF,Humidity,Sea Level PressureIn,VisibilityMPH,Wind Direction,Wind SpeedMPH,Gust SpeedMPH,PrecipitationIn,Events,Conditions,WindDirDegrees,DateUTC
12:54 AM,37.0,35.1,93,29.70,10.0,NW,8.1,-,N/A,,Clear,320,2012-10-20 05:54:00
1:54 AM,36.0,35.1,97,29.71,10.0,NW,8.1,-,N/A,,Clear,320,2012-10-20 06:54:00
2:54 AM,36.0,35.1,97,29.71,10.0,NW,6.9,-,N/A,,Clear,310,2012-10-20 07:54:00
3:54 AM,35.1,34.0,96,29.72,10.0,WNW,4.6,-,N/A,,Clear,290,2012-10-20 08:54:00
4:54 AM,34.0,33.1,96,29.74,9.0,NW,8.1,-,N/A,,Clear,310,2012-10-20 09:54:00
5:10 AM,33.8,33.8,100,29.71,9.0,NW,9.2,-,N/A,,Scattered Clouds,310,2012-10-20 10:10:00
5:17 AM,33.8,33.8,100,29.72,2.5,NW,10.4,-,N/A,,Mostly Cloudy,320,2012-10-20 10:17:00
5:22 AM,33.8,33.8,100,29.72,1.0,NW,11.5,-,N/A,,Mostly Cloudy,320,2012-10-20 10:22:00
5:30 AM,33.8,33.8,100,29.72,0.8,NW,11.5,-,N/A,,Overcast,320,2012-10-20 10:30:00
5:54 AM,34.0,33.1,96,29.75,0.5,NNW,10.4,-,N/A,Fog,Fog,330,2012-10-20 10:54:00
6:54 AM,33.1,33.1,100,29.78,0.8,NW,9.2,-,N/A,,Mist,320,2012-10-20 11:54:00
7:54 AM,34.0,34.0,100,29.79,0.2,NW,8.1,-,N/A,Fog,Fog,320,2012-10-20 12:54:00
8:54 AM,37.0,37.0,100,29.80,0.2,NNW,6.9,-,N/A,Fog,Fog,340,2012-10-20 13:54:00
9:54 AM,39.0,39.0,100,29.81,0.5,NW,5.8,-,N/A,Fog,Fog,320,2012-10-20 14:54:00
10:22 AM,39.2,39.2,100,29.79,1.2,NW,4.6,-,N/A,,Overcast,310,2012-10-20 15:22:00
10:33 AM,41.0,41.0,100,29.79,3.0,NNW,6.9,-,N/A,,Overcast,340,2012-10-20 15:33:00
10:54 AM,41.0,41.0,100,29.82,8.0,WNW,5.8,-,N/A,,Overcast,300,2012-10-20 15:54:00
11:54 AM,42.1,41.0,96,29.83,8.0,West,8.1,-,N/A,,Overcast,270,2012-10-20 16:54:00
12:54 PM,45.0,41.0,86,29.82,10.0,West,5.8,-,N/A,,Overcast,280,2012-10-20 17:54:00
1:18 PM,46.4,42.8,87,29.79,10.0,WNW,3.5,-,N/A,,Mostly Cloudy,290,2012-10-20 18:18:00
1:54 PM,46.9,41.0,80,29.82,10.0,Calm,Calm,-,N/A,,Mostly Cloudy,0,2012-10-20 18:54:00
2:19 PM,48.2,42.8,82,29.79,10.0,WNW,5.8,-,N/A,,Scattered Clouds,300,2012-10-20 19:19:00
2:54 PM,48.9,42.1,77,29.82,10.0,NW,4.6,-,N/A,,Partly Cloudy,320,2012-10-20 19:54:00
3:54 PM,50.0,41.0,71,29.82,10.0,WNW,5.8,-,N/A,,Clear,290,2012-10-20 20:54:00
4:54 PM,51.1,42.1,71,29.82,10.0,WNW,4.6,-,N/A,,Clear,290,2012-10-20 21:54:00
5:54 PM,50.0,39.9,68,29.84,10.0,Calm,Calm,-,N/A,,Clear,0,2012-10-20 22:54:00
6:54 PM,45.0,39.0,80,29.84,10.0,Calm,Calm,-,N/A,,Clear,0,2012-10-20 23:54:00
7:54 PM,41.0,39.0,93,29.86,10.0,Calm,Calm,-,N/A,,Clear,0,2012-10-21 00:54:00
8:54 PM,39.9,37.9,93,29.86,10.0,Calm,Calm,-,N/A,,Clear,0,2012-10-21 01:54:00
9:54 PM,39.0,37.0,93,29.89,10.0,Calm,Calm,-,N/A,,Clear,0,2012-10-21 02:54:00
10:54 PM,39.0,37.9,96,29.90,7.0,SSW,3.5,-,N/A,,Clear,210,2012-10-21 03:54:00
11:54 PM,37.9,36.0,93,29.90,8.0,South,3.5,-,N/A,,Clear,190,2012-10-21 04:54:00